ISS - Orbit

View from above orbital plane
View from above orbital plane
View from above satellite
View from above satellite

Ground track
Ground track

The orbit data is extracted from the following two-line orbital elements,

1 25544U 98067A   13144.55793981  .00013122  00000-0  23328-3 0  8708
2 25544 051.6493 225.5018 0009687 352.9926 208.7213 15.50475918831032
Epoch (UTC): 24 May 2013 13:23:26
Eccentricity: 0.0009687
inclination: 51.6493°
perigee height: 409 km
apogee height: 422 km
right ascension of ascending node: 225.5018°
argument of perigee: 352.9926°
revolutions per day: 15.50475918
mean anomaly at epoch: 208.7213°
orbit number at epoch: 83103

The dashed part of the orbit path shows where the satellite is in the earth's shadow,  

Developed and maintained by Chris Peat, Heavens-Above GmbH. Please read the updated FAQ before sending e-mail. Imprint. DLR